TimeCDT,TemperatureF,Dew PointF,Humidity,Sea Level PressureIn,VisibilityMPH,Wind Direction,Wind SpeedMPH,Gust SpeedMPH,PrecipitationIn,Events,Conditions,WindDirDegrees,DateUTC
12:53 AM,81.0,61.0,50,30.04,10.0,South,8.1,-,N/A,,Clear,190,2013-07-09 05:53:00
1:53 AM,81.0,62.1,52,30.04,10.0,South,10.4,-,N/A,,Clear,180,2013-07-09 06:53:00
2:53 AM,82.0,64.0,54,30.04,10.0,SSW,15.0,-,N/A,,Clear,200,2013-07-09 07:53:00
3:53 AM,80.1,64.9,60,30.04,10.0,South,12.7,-,N/A,,Clear,190,2013-07-09 08:53:00
4:53 AM,79.0,66.0,64,30.05,10.0,South,8.1,-,N/A,,Clear,190,2013-07-09 09:53:00
5:53 AM,78.1,68.0,71,30.04,10.0,South,11.5,-,N/A,,Partly Cloudy,180,2013-07-09 10:53:00
6:53 AM,78.1,69.1,74,30.06,10.0,South,12.7,-,N/A,,Partly Cloudy,180,2013-07-09 11:53:00
7:53 AM,80.1,71.1,74,30.07,10.0,SSW,11.5,-,N/A,,Partly Cloudy,200,2013-07-09 12:53:00
8:53 AM,82.9,70.0,65,30.09,10.0,SSW,15.0,-,N/A,,Partly Cloudy,200,2013-07-09 13:53:00
9:53 AM,86.0,68.0,55,30.09,10.0,SSW,16.1,23.0,N/A,,Partly Cloudy,210,2013-07-09 14:53:00
10:53 AM,90.0,66.0,45,30.09,10.0,SSW,15.0,-,N/A,,Partly Cloudy,200,2013-07-09 15:53:00
11:53 AM,93.0,63.0,37,30.08,10.0,South,15.0,23.0,N/A,,Partly Cloudy,190,2013-07-09 16:53:00
12:53 PM,95.0,63.0,34,30.07,10.0,SSW,15.0,23.0,N/A,,Scattered Clouds,210,2013-07-09 17:53:00
1:53 PM,96.1,61.0,31,30.05,10.0,SSW,15.0,21.9,N/A,,Scattered Clouds,210,2013-07-09 18:53:00
2:53 PM,98.1,57.0,25,30.02,10.0,South,11.5,25.3,N/A,,Scattered Clouds,180,2013-07-09 19:53:00
3:53 PM,99.0,55.0,23,30.01,10.0,SSW,13.8,24.2,N/A,,Partly Cloudy,200,2013-07-09 20:53:00
4:53 PM,99.0,55.0,23,29.98,10.0,South,12.7,24.2,N/A,,Scattered Clouds,170,2013-07-09 21:53:00
5:53 PM,100.0,55.9,23,29.96,10.0,South,17.3,21.9,N/A,,Scattered Clouds,190,2013-07-09 22:53:00
6:53 PM,98.1,59.0,27,29.95,10.0,South,10.4,-,N/A,,Scattered Clouds,180,2013-07-09 23:53:00
7:53 PM,96.1,60.1,30,29.94,10.0,South,13.8,-,N/A,,Partly Cloudy,170,2013-07-10 00:53:00
8:53 PM,93.0,61.0,34,29.94,10.0,SSE,10.4,-,N/A,,Scattered Clouds,160,2013-07-10 01:53:00
9:53 PM,90.0,61.0,38,29.95,10.0,SSE,8.1,-,N/A,,Partly Cloudy,160,2013-07-10 02:53:00
10:53 PM,89.1,62.1,40,29.96,10.0,South,9.2,-,N/A,,Partly Cloudy,170,2013-07-10 03:53:00
11:53 PM,87.1,62.1,43,29.98,10.0,South,9.2,-,N/A,,Partly Cloudy,170,2013-07-10 04:53:00